Weather past 2 weeks in Amsterdam Island, French Southern Territories

Now
68 °F

Mild.


Feels Like: 68 °F
Forecast: 67 / 70 °F
Wind: 17 mph from Northwest

Location: Martin De Vivies Ile Amsterdam

Current Time: Mar 3, 2015 at 10:41:29 AM

Latest Report: Mar 3, 2015 at 10:00 AM


Visibility: N/A

Pressure: 29.86 "Hg

Humidity: 88%

Dew point: 64 °F

Location of Amsterdam IslandLocation

Historic Weather in Amsterdam Island — Graph

°F

Amsterdam Island temperature yesterday

Maximum temperature yesterday: 70 °F (at 6:00 AM)
Minimum temperature yesterday: 66 °F (at 9:00 PM)
Average temperature yesterday: 68 °F

Past Weeks' High & Low Weather Summary

 TemperatureHumidityPressure
High74 °F (Feb 24, 1:00 PM)95% (Feb 20, 2:00 AM)30.32 "Hg (Feb 20, 2:00 AM)
Low57 °F (Feb 26, 1:00 AM)48% (Feb 27, 1:00 PM)29.38 "Hg (Mar 2, 1:00 PM)
Average66 °F78%30.08 "Hg
* Reported Feb 16 9:00 AM — Mar 3 9:00 AM, Amsterdam Island, Weather by CustomWeather, © 2015

Note: Actual official high and low records may vary slightly from our data, if they occured in-between our weather recording intervals... More about our weather records

Advertising

Amsterdam Island weather history for previous 24 hours

 ConditionsComfort  
Time TempWeatherWind HumidityBarometerVisibility
9:00 AM
Tue, Mar 3
66 °FMild.18 mph92%29.84 "HgN/A
8:00 AM65 °FMild.18 mph93%29.83 "HgN/A
7:00 AM65 °FMild.21 mph92%29.80 "HgN/A
6:00 AM64 °FMild.26 mph92%29.78 "HgN/A
5:00 AM64 °FMild.29 mph91%29.76 "HgN/A
4:00 AM65 °FMild.29 mph90%29.75 "HgN/A
3:00 AM65 °FMild.31 mph91%29.73 "HgN/A
2:00 AM65 °FMild.29 mph91%29.70 "HgN/A
1:00 AM66 °FMild.31 mph89%29.67 "HgN/A
12:00 AM66 °FMild.32 mph90%29.65 "HgN/A
11:00 PM
Mon, Mar 2
66 °FMild.29 mph90%29.62 "HgN/A
10:00 PM66 °FMild.30 mph91%29.59 "HgN/A
9:00 PM66 °FMild.31 mph91%29.57 "HgN/A
8:00 PM67 °FMild.32 mph91%29.55 "HgN/A
7:00 PM67 °FMild.37 mph90%29.53 "HgN/A
6:00 PM67 °FMild.36 mph92%29.47 "HgN/A
5:00 PM68 °FMild.38 mph89%29.47 "HgN/A
4:00 PM69 °FMild.40 mph88%29.44 "HgN/A
3:00 PM69 °FMild.41 mph89%29.41 "HgN/A
2:00 PM68 °FMild.43 mph92%29.38 "HgN/A
1:00 PM69 °FMild.44 mph90%29.38 "HgN/A
12:00 PM69 °FMild.44 mph91%29.41 "HgN/A
11:00 AM69 °FMild.43 mph90%29.41 "HgN/A
10:00 AM70 °FMild.39 mph89%29.44 "HgN/A
Weather by CustomWeather, © 2015

See weather overviewHow to use our weather pages